This is the latest recevied weather packets stored in our database for station/object EA3KZ-1. If no packets are shown the sender has not sent any weather packets the latest 10 day(s).
| Time | Temp. | Humidity | Pressure | Rain* | Wind** | Luminosity | Snow |
|---|---|---|---|---|---|---|---|
| 1788158120 | 23.33° C | 68% | 1015 hPa | 0 mm | - | - | - |
| 1788157517 | 22.78° C | 63% | 1014.8 hPa | 0 mm | - | - | - |
| 1788156974 | 22.78° C | 61% | 1014.8 hPa | 0 mm | - | - | - |
| 1788156372 | 21.67° C | 59% | 1014.7 hPa | 0 mm | - | - | - |
| 1788155769 | 21.67° C | 57% | 1014.5 hPa | 0 mm | - | - | - |
| 1788155167 | 21.11° C | 57% | 1014.4 hPa | 0 mm | - | - | - |
| 1788154564 | 21.11° C | 56% | 1014.4 hPa | 0 mm | - | - | - |
| 1788153962 | 20.56° C | 57% | 1014.1 hPa | 0 mm | - | - | - |
| 1788153359 | 20.56° C | 55% | 1014.1 hPa | 0 mm | - | - | - |
| 1788152756 | 21.11° C | 54% | 1014.2 hPa | 0 mm | - | - | - |
| 1788152154 | 21.11° C | 54% | 1014.1 hPa | 0 mm | - | - | - |
| 1788151551 | 20.56° C | 54% | 1014.2 hPa | 0 mm | - | - | - |
| 1788150949 | 20.56° C | 54% | 1014.1 hPa | 0 mm | - | - | - |
| 1788150346 | 21.11° C | 54% | 1014.2 hPa | 0 mm | - | - | - |
| 1788149744 | 21.11° C | 53% | 1014.2 hPa | 0 mm | - | - | - |
| 1788149141 | 21.11° C | 53% | 1014 hPa | 0 mm | - | - | - |
| 1788148538 | 21.11° C | 53% | 1014 hPa | 0 mm | - | - | - |
| 1788147935 | 21.11° C | 53% | 1014.1 hPa | 0 mm | - | - | - |
| 1788147333 | 21.11° C | 53% | 1014 hPa | 0 mm | - | - | - |
| 1788146730 | 21.11° C | 53% | 1014.2 hPa | 0 mm | - | - | - |
| 1788146128 | 21.11° C | 52% | 1014.1 hPa | 0 mm | - | - | - |
| 1788145525 | 21.11° C | 52% | 1014.1 hPa | 0 mm | - | - | - |
| 1788144923 | 21.11° C | 52% | 1014 hPa | 0 mm | - | - | - |
| 1788144320 | 21.11° C | 52% | 1014 hPa | 0 mm | - | - | - |
| 1788143718 | 21.11° C | 53% | 1014.1 hPa | 0 mm | - | - | - |
* Rain latest hour (hover to see other rain measurements)
** Current wind speed in m/s (hover to see current wind gust speed)